Location: Unspecified
(0.0000°N, 0.0000°E)
Time: 12:47:40
(UTC+00:00)

Vanguard 2 - Pass Details

Date: 21 September 2019
Orbit: 554 x 2937 km, 32.9° (Epoch: 13 October)

Event Time Altitude Azimuth Distance (km) Brightness Sun altitude
Rises 22:49:42 0° 235° (SW) 6,328 12.4 -74.2°
Reaches altitude 10° 22:53:35 10° 235° (SW) 5,498 11.9 -75.1°
Enters shadow 22:55:46 16° 235° (SW) 5,046 11.7 -75.7°
Maximum altitude 23:11:22 88° 323° (NW) 2,910 - -79.6°
Drops below altitude 10° 23:27:28 10° 53° (NE) 5,051 - -83.6°
Sets 23:30:51 0° 54° (NE) 5,814 - -84.4°
